sat.trackr.live / text

‹ back to catalog

HULIANWANG DIGUI-65

NORAD 65171 · 2025-174H

PAYLOAD ACTIVE UNKNOWN

§ Identity

Operator
Country
PRC
Launch date
2025-08-13
Launch site
WSC
Launch vehicle
Mass (kg)
RCS (m²)

External: N2YO · Heavens-Above · Gunter

§ Orbital elements

Epoch: 2026-09-21T21:04:16.376448Z

Period
108.73 min
Inclination
86.4910°
Eccentricity
0.0002289
Mean motion
13.24400021 rev/d
Perigee alt
1,166.2 km
Apogee alt
1,169.7 km
Semi-major
7,546.1 km
B*
2.4132e-5
RAAN
219.0928°
Arg perigee
77.7550°
Mean anomaly
282.3840°
Rev number
5,358

§ Raw data

HULIANWANG DIGUI-651 65171U 25174H   26264.87796732  .00000025  00000+0  24132-4 0  99902 65171  86.4910 219.0928 0002289  77.7550 282.3840 13.24400021 53588

JSON: /api/v1/satellites/65171 · /tle

For live sub-satellite position, see the globe view (requires WebGL).

§ Visibility from observer

Set your observer location to see the next 7 days of passes ≥ 10°. The values pass through the URL so the page stays shareable.

No JS? Fill the form by hand. The geolocation button needs JavaScript.